Kalaeloa, HI

1:08 PM HST on January 22, 2018 (GMT -1000)
Kalaeloa (John Rodgers Field)

Weather History for PHJR - July, 2013

Change the Weather History Date:

Wednesday, July 24, 2013

  Actual Average (PHHI) Record (PHHI)
Temperature  
Mean Temperature 80 °F -  
Max Temperature 87 °F 80 °F 84 °F (1996)
Min Temperature 72 °F 67 °F 64 °F (2011)
Cooling Degree Days 14    
Growing Degree Days 30 (Base 50)    
Moisture  
Dew Point 67 °F    
Average Humidity 67    
Maximum Humidity 81    
Minimum Humidity 55    
Precipitation  
Precipitation 0.00 in - - ()
Sea Level Pressure  
Sea Level Pressure 30.00 in    
Wind  
Wind Speed 3 mph (East)    
Max Wind Speed 13 mph    
Max Gust Speed 20 mph    
Visibility 10 miles    
Events      
Averages and records for this station are not official NWS values.
T = Trace of Precipitation, MM = Missing Value Source: NWS Daily Summary

Daily Weather History Graph

Daily Weather History Graph

Search for Another Location

Airport or City:

Trip Planner

Search our weather history database for the weather conditions in past years. The results will help you decide how hot, cold, wet, or windy it might be!

Date:

Astronomy

Jul. 24, 2013 Rise Set
Actual Time 6:02 AM HST 7:14 PM HST
Civil Twilight 5:38 AM HST 7:38 PM HST
Nautical Twilight 5:10 AM HST 8:07 PM HST
Astronomical Twilight 4:40 AM HST 8:36 PM HST
Moon 8:57 PM HST (7/24) 8:10 AM HST (7/24)
Length of Visible Light 13h 59m
Length of Day
13h 11m
Waning Gibbous, 93% of the Moon is Illuminated
Jul 24
Waning Gibbous
Jul 29
Last Quarter
Aug 6
New
Aug 14
First Quarter
Aug 20
Full

Hourly Weather History & Observations

Time (HST) Temp. Heat Index Dew Point Humidity Pressure Visibility Wind Dir Wind Speed Gust Speed Precip Events Conditions
12:53 AM 75.9 °F - 66.9 °F 74% 30.04 in 10.0 mi Variable 3.5 mph - N/A   Overcast
1:53 AM 75.0 °F - 66.9 °F 76% 30.02 in 10.0 mi Calm Calm - N/A   Clear
2:41 AM 73.4 °F - 66.2 °F 78% 29.98 in 10.0 mi Calm Calm - N/A   Scattered Clouds
2:53 AM 73.9 °F - 66.9 °F 79% 30.01 in 10.0 mi Calm Calm - N/A   Partly Cloudy
3:53 AM 73.9 °F - 66.9 °F 79% 30.01 in 10.0 mi Calm Calm - N/A   Mostly Cloudy
4:53 AM 72.0 °F - 66.0 °F 81% 30.01 in 10.0 mi Calm Calm - N/A   Clear
5:53 AM 72.0 °F - 66.0 °F 81% 30.01 in 10.0 mi Calm Calm - N/A   Clear
6:53 AM 75.0 °F - 68.0 °F 79% 30.02 in 10.0 mi Calm Calm - N/A   Clear
7:53 AM 80.1 °F 82.7 °F 68.0 °F 67% 30.03 in 10.0 mi East 4.6 mph - N/A   Clear
8:53 AM 82.0 °F 84.5 °F 66.9 °F 60% 30.03 in 10.0 mi Variable 4.6 mph - N/A   Clear
9:53 AM 84.0 °F 87.0 °F 68.0 °F 58% 30.02 in 10.0 mi Variable 4.6 mph - N/A   Partly Cloudy
10:53 AM 84.9 °F 87.6 °F 66.9 °F 55% 30.01 in 10.0 mi Variable 6.9 mph - N/A   Mostly Cloudy
11:53 AM 84.0 °F 87.8 °F 69.1 °F 61% 30.00 in 10.0 mi ESE 12.7 mph 19.6 mph N/A   Scattered Clouds
12:53 PM 87.1 °F 91.3 °F 69.1 °F 55% 29.99 in 10.0 mi ESE 10.4 mph 16.1 mph N/A   Scattered Clouds
1:53 PM 82.9 °F 87.0 °F 70.0 °F 65% 29.98 in 10.0 mi ESE 8.1 mph 17.3 mph N/A   Overcast
2:53 PM 84.9 °F 88.2 °F 68.0 °F 57% 29.96 in 10.0 mi East 9.2 mph 18.4 mph N/A   Scattered Clouds
3:53 PM 84.9 °F 87.6 °F 66.9 °F 55% 29.95 in 10.0 mi East 5.8 mph - N/A   Mostly Cloudy
4:53 PM 84.0 °F 86.5 °F 66.9 °F 56% 29.94 in 10.0 mi ENE 8.1 mph - N/A   Clear
5:53 PM 82.0 °F 83.8 °F 64.9 °F 56% 29.95 in 10.0 mi East 8.1 mph - N/A   Clear
6:53 PM 80.1 °F 82.3 °F 66.9 °F 64% 29.96 in 10.0 mi Variable 4.6 mph - N/A   Mostly Cloudy
7:53 PM 78.1 °F - 66.0 °F 66% 29.98 in 10.0 mi ENE 3.5 mph - N/A   Clear
8:40 PM 77.0 °F - 66.2 °F 69% 29.97 in 10.0 mi Calm Calm - N/A   Partly Cloudy
8:53 PM 77.0 °F - 66.0 °F 69% 30.00 in 10.0 mi Calm Calm - N/A   Partly Cloudy
9:53 PM 75.9 °F - 64.9 °F 69% 30.01 in 10.0 mi Variable 3.5 mph - N/A   Clear
10:53 PM 73.9 °F - 64.9 °F 73% 30.01 in 10.0 mi ENE 3.5 mph - N/A   Clear
11:53 PM 73.0 °F - 64.0 °F 73% 30.00 in 10.0 mi Calm Calm - N/A   Clear